Orbital Elements at Epoch 2459200.5 (2020-Dec-17.0) TDB
Reference: JPL 21 (heliocentric ecliptic J2000)
Element | Value | Uncertainty (1-sigma) | Units |
e | .1482173639374263 | 5.2744e-08 | |
a | 2.286653040368608 | 7.1199e-09 | au |
q | 1.947731354485672 | 1.1955e-07 | au |
i | 3.366325951383456 | 5.3908e-06 | deg |
node | 170.9912372327437 | 5.6945e-05 | deg |
peri | 210.6865965057501 | 5.8189e-05 | deg |
M | 14.87550791863798 | 1.06e-05 | deg |
tp | 2459148.312302174394 (2020-Oct-25.81230217) | 3.7204e-05 | TDB |
period | 1262.986872110671 3.46 | 5.8988e-06 1.615e-08 | d yr |
n | .285038592205141 | 1.3313e-09 | deg/d |
Q | 2.625574726251545 | 8.1752e-09 | au |
|
| | Orbit Determination Parameters
Additional Information
|